Weather History for LICR - November, 2012

Change the Weather History Date:

Monday, November 19, 2012

  Actual Average Record
Temperature  
Mean Temperature 62 °F -  
Max Temperature 64 °F 62 °F 71 °F (2001)
Min Temperature 59 °F 52 °F 50 °F (2007)
Degree Days  
Heating Degree Days 4    
Growing Degree Days 12 (Base 50)    
Moisture  
Dew Point 57 °F    
Average Humidity 84    
Maximum Humidity 94    
Minimum Humidity 77    
Precipitation  
Precipitation 0.00 in - - ()
Sea Level Pressure  
Sea Level Pressure 29.80 in    
Wind  
Wind Speed 5 mph ()    
Max Wind Speed 9 mph    
Max Gust Speed -    
Visibility 6.2 miles    
Events Rain    
Averages and records for this station are not official NWS values.
T = Trace of Precipitation, MM = Missing Value Source: Averaged Metar Reports

Daily Weather History Graph

Daily Weather History Graph

Search for Another Location

Airport or City:

Trip Planner

Search our weather history database for the weather conditions in past years. The results will help you decide how hot, cold, wet, or windy it might be!

Date:

Astronomy

Nov. 19, 2012 Rise Set
Actual Time 6:42 AM CET 4:42 PM CET
Civil Twilight 6:14 AM CET 5:10 PM CET
Nautical Twilight 5:42 AM CET 5:43 PM CET
Astronomical Twilight 5:10 AM CET 6:14 PM CET
Moon 11:37 AM CET (11/19) 10:48 PM CET (11/19)
Length of Visible Light 10h 56m
Length of Day
9h 59m
Waxing Crescent, 38% of the Moon is Illuminated
Nov 19
Waxing Crescent
Nov 20
First Quarter
Nov 28
Full
Dec 6
Last Quarter
Dec 13
New

Hourly Weather History & Observations

Time (CET) Temp. Dew Point Humidity Pressure Visibility Wind Dir Wind Speed Gust Speed Precip Events Conditions
5:50 AM 60.8 °F 57.2 °F 88% 29.83 in 6.2 mi SSE 8.1 mph - N/A   Drizzle
6:15 AM 60.8 °F 59.0 °F 94% 29.83 in 6.2 mi SSE 8.1 mph - N/A Rain Rain
6:50 AM 60.8 °F 57.2 °F 88% 29.83 in 6.2 mi SSW 5.8 mph - N/A   Scattered Clouds
7:23 AM 60.8 °F 57.2 °F 88% 29.83 in 6.2 mi Variable 2.3 mph - N/A   Drizzle
7:50 AM 60.8 °F 59.0 °F 94% 29.83 in 6.2 mi SW 9.2 mph - N/A   Scattered Clouds
8:50 AM 60.8 °F 59.0 °F 94% 29.83 in 6.2 mi WSW 9.2 mph - N/A   Scattered Clouds
9:50 AM 62.6 °F 59.0 °F 88% 29.83 in 6.2 mi SSW 3.5 mph - N/A   Scattered Clouds
10:50 AM 62.6 °F 57.2 °F 82% 29.83 in 6.2 mi Variable 2.3 mph - N/A   Light Drizzle
11:50 AM 62.6 °F 57.2 °F 82% 29.80 in 6.2 mi Variable 2.3 mph - N/A   Scattered Clouds
12:50 PM 62.6 °F 59.0 °F 88% 29.77 in 6.2 mi East 3.5 mph - N/A   Scattered Clouds
1:50 PM 64.4 °F 57.2 °F 77% 29.77 in 6.2 mi Variable 2.3 mph - N/A   Scattered Clouds
2:50 PM 62.6 °F 57.2 °F 82% 29.77 in 6.2 mi NW 4.6 mph - N/A Rain Light Rain
3:50 PM 62.6 °F 57.2 °F 82% 29.77 in 6.2 mi North 3.5 mph - N/A Rain Light Rain
4:50 PM 60.8 °F 57.2 °F 88% 29.77 in 6.2 mi NE 5.8 mph - N/A   Mostly Cloudy
5:50 PM 60.8 °F 55.4 °F 82% 29.77 in 6.2 mi NE 6.9 mph - N/A   Mostly Cloudy
6:50 PM 60.8 °F 55.4 °F 82% 29.80 in 6.2 mi North 9.2 mph - N/A   Mostly Cloudy
7:50 PM 60.8 °F 53.6 °F 77% 29.80 in 6.2 mi NNE 9.2 mph - N/A   Light Drizzle
8:50 PM 59.0 °F 53.6 °F 82% 29.80 in 6.2 mi NE 5.8 mph - N/A   Light Drizzle
9:50 PM 60.8 °F 53.6 °F 77% 29.77 in 6.2 mi NE 6.9 mph - N/A   Mostly Cloudy
10:50 PM 59.0 °F 53.6 °F 82% 29.80 in 6.2 mi NE 4.6 mph - N/A   Mostly Cloudy
11:50 PM 60.8 °F 53.6 °F 77% 29.80 in 6.2 mi NE 6.9 mph - N/A   Mostly Cloudy